Weather in Khobotovo

Russia / Tambov Oblast     53°04′24″N   40°22′50″E
temp.,
°C
wind,
m/s
gust,
m/s
humid.,
%
clouds,
%
prec.,
mm/h
press.,
hPa
HPBL,
m
16 june, wed
wed1600:00+17nnw2290100 0.0 100918
03:00+16nnw229281 0.0 100927
06:00+18nw249263 0.0 1009143
09:00+22nnw357771 0.0 1010561
12:00+24nw347198 2.4 1010729
15:00+24nw547191 3.4 10111046
18:00+22nnw467986 0.4 1012727
21:00+18nnw37945 0.4 1014160
17 june, thu
thu1700:00+16n37945 0.0 1016125
03:00+15nne410910 0.0 1018220
06:00+15nne49820 0.0 1019258
09:00+19ne57700 0.0 1020545
12:00+21ne67570 0.0 10221164
15:00+22nne57570 0.0 10221415
18:00+21nne47695 0.0 1022618
21:00+16ne36770 0.0 102497
18 june, fri
fri1800:00+14ne37720 0.0 1025102
03:00+13ne387644 0.0 1025140
06:00+14ene278294 0.0 1027182
09:00+19ene46670 0.0 1027557
12:00+21ene56570 0.0 10271311
15:00+23ene45520 0.0 10271640
18:00+22ene24640 0.0 1027445
21:00+17se22820 0.0 102817
19 june, sat
sat1900:00+15ese22820 0.0 102811
03:00+13e22845 0.0 102911
06:00+16e11794 0.0 103063
09:00+20ese22670 0.0 1030457
12:00+23se23580 0.0 10291218
15:00+24sse22553 0.0 10281292
18:00+24sse11618 0.0 10271032
21:00+19ene11765 0.0 102711
20 june, sun
sun2000:00+17se11845 0.0 102711
03:00+16ene00870 0.0 102811
06:00+18ne11830 0.0 102862
09:00+22e22710 0.0 1027536
12:00+25e22610 0.0 10261233
15:00+26ese23570 0.0 10241395
18:00+26ese13620 0.0 10231389
21:00+20se11800 0.0 102411